SCP
0 -0 0 0 0 -0 0 0 0 0 0 0 0 0 0 0 0 0 0 0 0 0 0 0 0 0 0 -0 0 0 0 0 0 0 0 0 0 0 0 0 0 0 0 0
0 0 0 0 0 0 0 0 0 0 0 0 0 0 0 0 0 0 0 0 0 0 0 0 0 0 0 -0 -0 0 0 0 0 0 0 0 0 0 0 0 0 0 0 0
0 0 0 -0 -0 0 0 0 0 0 0 0 0 0 0 0 0 0 0 0 0 0 0 0 0 0 0 0 -0 0 0 0 0 0 0 0 0 0 0 0 0 0 -0 0
0 0 0 0 0 0 0 0 0 0 0 0 0 0 0 0 0 0 0 0 0 0 0 0 0 0 0 0 0 0 0 -0 0 0 0 0 0 -0 0 0 -0 -0 -0 -0
0 0 0 0 0 0 0 0 0 0 0 0 0 0 0 0 0 0 0 0 0 0 0 0 -0 0 0 0 0 0 0 0 0 -0 -0 -0 -0 -0 0 -0 -0 -0 -0 -0
0 0 0 0 0 0 0 0 0 0 0 0 0 0 0 0 0 0 0 0 -0 0 0 0 0 0 0 0 0 0 0 0 0 -0 -0 -0 0 -0 -0 0 -0 -0 -0 0
0 0 0 0 0 0 0 0 0 0 0 0 0 0 0 0 0 0 -0 -0 -0 0 -0 -0 0 0 0 0 0 -0 0 -0 -0 -0 -0 0 -0 -0 -0 -0 -0 -0 -0 0
0 0 0 0 0 0 0 0 0 0 0 0 0 0 0 0 0 0 0 -0 0 0 0 0 0 0 0 0 0 0 -0 -0 0 -0 -0 -0 -0 -0 0 -0 -0 -0 -0 0
0 0 0 0 0 0 0 0 0 0 0 0 0 0 0 0 0 0 0 -0 0 0 0 0 0 0 0 0 0 0 -0 -0 0 0 0 0 0 0 0 -0 0 -0 0 0
0 0 0 -0 -0 -0 0 0 0 0 0 0 0 0 0 0 0 0 0 -0 0 0 -0 0 0 0 0 0 0 0 -0 0 -0 0 0 0 0 -0 -0 -0 0 0 0 0
0 0 0 0 0 -0 0 0 0 0 0 0 0 0 0 0 0 0 0 -0 -0 0 -0 -0 0 0 0 0 0 0 0 0 0 0 0 0 0 -0 -0 0 -0 0 0 0
0 0 0 0 0 0 0 0 0 0 0 0 0 0 -0 -0 -0 0 0 -0 -0 0 -0 0 0 0 0 0 0 0 0 0 0 0 0 0 -0 0 -0 -0 -0 0 0 0
0 0 0 0 0 0 0 0 0 0 0 0 0 0 0 0 0 -0 0 0 0 0 0 0 0 0 0 0 0 0 0 0 0 0 0 -0 -0 -0 -0 0 0 0 0 0
0 0 0 0 0 0 0 0 0 0 0 0 0 0 0 0 0 -0 -0 0 0 0 0 0 0 0 0 0 0 0 0 0 0 0 0 0 0 0 -0 0 0 0 0 0
0 0 0 0 0 0 0 0 0 0 0 0 0 -0 0 0 0 -0 -0 -0 -0 0 0 0 0 0 0 0 0 0 0 0 0 -0 -0 -0 0 -0 0 0 0 0 0 0
0 0 0 0 0 0 0 0 0 0 0 0 0 0 0 0 0 0 -0 -0 0 0 0 0 -0 -0 0 0 0 0 0 0 -0 -0 0 -0 0 0 0 0 0 0 0 0
0 0 0 0 0 0 0 0 0 0 0 0 0 0 0 0 0 0 0 0 0 0 0 0 -0 -0 -0 0 0 -0 0 0 -0 -0 -0 -0 0 0 0 0 0 0 0 0
0 0 0 0 0 0 0 0 0 0 0 0 0 0 0 0 0 0 0 0 0 0 0 0 -0 -0 -0 -0 0 0 -0 0 -0 -0 -0 0 0 0 0 0 0 0 0 0
0 0 0 0 0 0 0 0 0 0 0 0 0 0 0 0 0 0 0 0 0 0 0 0 0 0 0 -0 -0 -0 -0 0 -0 0 -0 0 -0 -0 0 0 0 0 0 0
0 0 0 0 0 0 0 0 0 0 0 0 0 0 0 0 0 0 0 0 0 0 0 0 0 0 0 -0 0 -0 -0 -0 -0 0 0 -0 0 -0 0 0 0 0 0 0
0 0 0 0 0 0 0 0 0 0 0 0 0 0 0 0 0 0 0 0 0 0 0 0 -0 -0 0 0 0 0 -0 -0 0 0 0 -0 -0 0 -0 -0 -0 -0 0 0
0 0 0 0 0 0 0 0 0 0 0 0 0 0 0 0 0 0 0 0 0 0 0 0 0 -0 0 0 -0 0 0 0 -0 -0 0 -0 -0 0 0 0 -0 0 0 0
0 0 0 0 0 0 0 0 0 0 0 0 0 0 0 0 0 0 0 0 0 0 0 0 0 0 0 0 0 -0 -0 0 -0 -0 -0 -0 -0 0 0 0 -0 0 0 0
0 0 0 0 0 0 0 0 0 0 0 0 0 0 0 0 0 0 0 0 0 -0 -0 -0 0 0 0 -0 -0 -0 -0 0 0 -0 -0 -0 0 0 0 0 0 0 0 0
0 0 0 0 0 0 0 0 0 0 0 0 0 0 -0 0 0 0 0 0 0 0 -0 -0 -0 0 -0 -0 -0 -0 -0 -0 -0 0 -0 -0 0 0 0 0 0 0 0 0
0 0 0 0 0 0 0 0 0 0 0 0 0 0 0 0 0 0 0 0 0 0 0 -0 -0 0 0 0 -0 -0 0 -0 0 -0 0 -0 0 0 0 0 0 0 0 0
0 0 0 0 0 0 0 0 0 0 0 0 0 0 0 0 0 0 0 0 0 0 0 0 -0 0 -0 0 -0 -0 -0 -0 -0 -0 -0 0 0 0 0 0 0 0 0 0
Wind_Speed_500mb
63 66 69 66 59 62 55 18 2 12 16 4 3 1 9 19 12 3 11 11 20 22 22 16 15 14 11 21 19 21 8 7 11 19 16 15 14 8 19 16 34 20 17 9
62 64 66 67 52 54 56 23 10 11 17 3 6 8 11 9 10 11 7 9 7 12 12 13 17 18 17 27 19 8 6 3 11 15 9 8 1 6 4 10 12 23 23 13
59 64 64 64 53 39 39 14 7 9 12 6 4 12 8 11 11 22 9 14 18 10 11 19 13 29 19 19 25 23 10 11 20 19 16 15 19 19 17 9 16 26 31 46
53 57 59 57 52 33 26 14 5 6 8 4 18 9 10 19 13 5 17 7 14 13 12 32 36 26 28 26 21 18 8 19 22 27 30 29 33 39 34 27 27 23 27 48
55 51 53 45 38 31 17 12 9 8 14 18 13 6 6 15 9 10 20 24 29 30 29 35 45 41 28 15 9 18 14 13 20 24 31 34 40 40 40 38 37 36 40 57
60 57 44 39 25 27 10 15 11 6 9 7 7 5 8 19 32 24 25 30 31 31 36 42 58 62 66 40 19 11 8 8 10 22 16 18 26 43 47 39 35 32 40 49
57 51 43 40 17 17 22 20 19 4 8 6 14 19 34 32 29 30 59 46 32 26 66 69 52 37 34 29 27 26 9 18 11 7 4 14 12 2 12 27 32 34 40 47
55 47 42 37 17 14 24 22 20 8 8 17 28 16 25 36 35 22 26 30 25 46 27 11 15 5 4 6 4 23 24 9 5 7 13 23 31 5 12 7 20 19 35 45
49 37 41 31 24 18 23 25 22 19 9 9 17 34 20 12 16 16 16 31 29 16 6 6 8 7 8 9 15 6 18 24 10 9 10 9 7 11 14 15 20 26 36 30
44 45 40 29 15 18 24 29 25 26 16 36 18 10 10 9 9 11 29 18 9 13 11 7 6 6 10 8 14 9 4 6 21 19 10 14 5 17 16 9 3 30 15 13
45 44 38 32 16 10 20 28 31 31 21 55 50 41 22 16 12 7 19 17 3 6 10 7 7 6 6 7 8 11 5 7 4 10 11 13 17 20 10 12 46 33 40 20
44 41 39 31 23 19 18 30 25 27 35 49 69 81 74 73 70 36 12 10 12 4 5 1 5 6 5 10 6 2 4 3 5 6 6 13 32 32 66 70 56 63 41 25
45 42 40 34 24 17 20 33 33 35 36 52 31 20 9 12 8 26 19 13 11 6 10 3 4 9 3 6 5 6 7 12 5 6 6 23 35 50 55 10 19 2 12 8
44 42 39 35 31 24 27 33 32 28 19 11 17 16 46 37 31 36 39 43 15 11 7 9 5 7 7 5 8 8 8 13 10 9 15 26 15 46 49 40 46 36 26 31
44 40 36 34 30 27 29 35 36 34 28 9 27 58 2 14 14 24 31 47 54 19 6 6 6 7 5 7 6 6 14 8 5 5 28 15 21 40 47 42 47 43 37 38
43 41 37 31 29 22 19 10 1 6 25 8 8 16 11 12 15 9 23 36 30 20 6 9 8 9 7 5 4 7 15 11 10 12 23 16 30 30 33 35 36 38 47 35
46 45 40 33 26 21 17 8 12 18 10 7 10 10 8 15 5 2 9 20 18 17 8 9 7 6 9 4 6 13 15 9 15 21 12 17 26 26 31 33 34 29 36 47
44 42 31 23 17 20 25 14 27 21 13 9 5 8 11 3 3 5 9 9 14 11 7 6 6 6 5 6 6 8 13 6 19 18 17 16 23 32 33 31 28 28 39 31
44 31 14 8 4 5 4 12 16 32 14 7 7 5 6 6 5 5 5 8 6 7 6 5 4 4 8 6 3 7 13 7 9 13 20 23 32 34 37 31 29 30 37 33
33 15 1 4 5 11 13 6 9 28 13 13 8 7 7 5 2 3 3 4 3 5 5 4 6 6 11 11 8 4 10 10 10 17 22 21 27 27 29 32 27 25 28 25
31 20 6 10 15 12 7 7 8 14 7 11 11 19 13 10 8 4 4 2 3 4 3 5 4 5 3 12 12 5 17 9 15 18 15 18 26 25 29 30 30 22 21 26
39 27 26 14 5 7 6 6 6 9 7 8 6 8 16 8 13 6 4 4 2 6 5 2 5 5 4 15 16 18 22 15 10 14 15 19 28 33 31 32 32 29 20 19
12 4 7 6 4 6 10 8 6 6 6 6 4 5 9 8 11 5 4 6 6 5 4 5 7 3 12 19 16 18 19 20 11 12 14 17 26 36 42 42 41 35 25 21
5 5 9 9 9 10 8 5 4 6 13 18 24 11 9 9 8 2 6 2 2 2 4 7 4 9 23 28 22 21 20 20 20 14 11 14 23 31 37 43 39 32 30 26
8 6 9 10 11 12 11 11 14 13 19 16 18 10 10 4 4 6 3 5 5 7 7 5 3 3 23 28 26 21 19 20 21 18 11 10 15 24 29 34 37 42 42 43
9 12 10 13 13 13 5 6 11 17 20 24 8 6 4 6 2 6 9 6 8 5 6 14 11 3 25 26 24 23 20 19 21 21 14 9 9 18 21 26 35 41 45 52
8 8 12 20 25 24 19 16 27 27 13 5 5 5 5 2 3 5 3 5 6 13 17 18 20 11 20 26 23 22 23 22 19 20 17 14 10 14 16 22 28 35 43 49
Wind_Direction_500mb
349 352 353 356 350 349 357 357 283 358 348 343 40 338 322 313 300 358 287 271 270 269 285 282 282 250 266 322 341 322 331 307 289 283 289 263 266 290 238 244 225 240 284 272
345 348 351 353 356 352 351 346 308 349 358 27 339 311 280 270 293 314 302 277 285 303 288 296 255 273 292 292 296 289 343 274 308 302 195 109 132 263 270 290 267 253 244 247
343 345 348 353 357 355 352 353 329 354 54 63 346 331 280 314 267 284 256 275 296 275 279 258 279 284 295 282 288 285 270 248 252 259 302 319 297 285 267 260 259 247 237 266
342 341 343 351 353 7 3 5 30 353 316 346 314 295 275 293 293 277 302 269 229 280 285 300 279 287 290 289 284 275 253 254 246 260 274 276 275 275 272 259 250 254 261 257
337 333 331 345 353 1 357 4 347 318 285 296 297 295 273 303 328 317 296 270 295 295 284 284 289 290 278 249 231 239 218 237 217 250 258 264 270 267 263 260 258 253 253 263
331 333 342 340 353 348 344 335 313 293 282 301 296 287 312 304 317 292 249 293 300 295 291 300 287 280 274 258 252 230 231 203 215 256 268 280 273 251 246 254 251 243 244 254
334 341 348 351 332 330 316 313 309 234 291 263 293 293 299 297 303 276 289 291 284 293 307 301 289 271 259 249 251 214 209 202 230 276 309 253 275 215 281 265 268 263 237 245
330 342 339 339 326 290 320 299 289 234 265 291 294 308 308 305 308 280 281 293 294 312 312 310 329 334 222 225 203 216 206 207 236 235 226 279 285 39 335 353 286 267 224 238
340 353 336 339 345 295 281 304 284 259 279 249 271 308 294 299 324 309 282 313 323 350 336 322 328 329 309 328 333 171 219 210 213 213 246 262 39 120 12 327 273 226 226 238
331 330 330 333 328 330 279 284 286 267 258 280 269 265 303 278 284 284 297 335 324 2 360 340 336 309 327 304 324 332 162 181 223 231 261 271 66 342 326 248 15 325 309 263
323 323 328 327 304 300 294 283 288 277 274 286 274 272 243 255 236 251 310 323 49 301 12 354 336 296 322 290 281 310 301 304 220 218 236 267 22 330 237 330 311 303 300 269
322 321 323 325 316 281 288 296 285 284 276 270 284 287 282 268 258 251 270 284 298 254 294 213 293 286 287 292 302 39 299 270 288 253 294 297 292 256 263 262 265 280 285 271
322 320 318 315 305 301 275 289 293 292 283 295 285 292 293 307 315 218 218 237 233 219 218 265 282 272 259 293 329 289 240 210 242 301 264 289 301 336 343 51 207 11 53 48
322 323 322 317 311 285 261 269 274 268 277 282 280 302 301 292 258 243 256 244 260 279 217 226 248 263 202 286 284 289 280 307 279 253 278 319 310 347 356 18 50 37 49 45
327 326 323 321 311 304 295 289 282 251 231 284 296 313 341 329 313 246 242 238 245 272 241 222 238 248 266 227 284 279 340 331 323 330 307 307 327 344 360 12 35 26 40 40
325 320 316 309 303 302 315 312 355 314 214 266 291 309 313 337 338 259 233 233 233 238 253 246 254 249 236 292 273 253 331 22 337 284 317 351 354 358 358 7 19 20 36 30
324 317 312 303 287 257 230 249 282 314 172 249 280 284 277 315 307 194 201 211 224 230 250 232 255 267 221 261 274 346 354 16 6 11 11 20 12 355 355 359 16 12 28 48
325 321 316 310 294 251 255 274 266 247 206 242 265 276 302 274 245 210 201 208 217 227 262 254 245 258 238 257 264 325 5 10 23 34 52 42 14 16 13 16 14 30 38 25
332 329 324 313 330 187 185 280 307 225 213 264 232 264 288 320 257 231 225 220 235 227 243 239 211 219 232 239 160 43 23 16 63 50 38 33 23 16 21 25 19 31 42 34
341 336 320 228 233 285 288 251 202 189 227 231 251 219 261 298 303 275 265 211 275 254 219 230 233 259 260 228 168 66 53 46 72 43 22 31 27 24 27 31 34 33 45 37
359 346 309 285 274 289 221 244 220 192 239 226 239 225 242 248 217 249 232 275 261 271 77 284 302 270 202 165 144 116 112 74 59 57 43 55 37 33 33 32 41 40 51 55
323 304 300 301 271 239 250 226 226 195 241 200 213 258 220 238 215 221 187 259 239 255 349 250 262 257 219 158 142 129 124 111 71 47 72 52 39 33 33 36 40 47 59 66
330 292 271 242 229 237 218 226 209 218 202 155 13 318 271 197 205 227 199 220 234 314 252 244 242 171 183 175 158 139 132 123 106 59 53 56 46 36 36 38 43 45 62 71
298 265 264 214 214 231 221 252 352 23 345 321 312 272 279 207 172 176 222 158 223 243 250 245 216 214 181 173 163 160 154 146 131 111 92 44 43 41 43 44 48 57 71 89
262 233 244 240 250 271 283 300 313 305 302 323 314 259 228 201 166 189 198 180 248 230 239 247 238 165 177 179 176 170 162 155 149 132 106 71 49 45 53 56 54 56 63 69
239 236 265 285 290 294 303 308 299 340 322 311 235 263 257 232 240 184 220 188 213 262 240 280 311 153 176 185 181 181 170 160 155 147 136 116 70 48 60 67 65 62 63 67
265 277 298 288 286 282 297 319 318 330 325 286 272 225 244 57 238 224 219 196 235 275 313 329 325 315 187 180 187 182 177 173 160 166 156 151 126 64 66 71 70 69 71 71
Wind_Speed_850mb
63 66 69 66 59 62 55 18 2 12 16 4 3 1 9 19 12 3 11 11 20 22 22 16 15 14 11 21 19 21 8 7 11 19 16 15 14 8 19 16 34 20 17 9
62 64 66 67 52 54 56 23 10 11 17 3 6 8 11 9 10 11 7 9 7 12 12 13 17 18 17 27 19 8 6 3 11 15 9 8 1 6 4 10 12 23 23 13
59 64 64 64 53 39 39 14 7 9 12 6 4 12 8 11 11 22 9 14 18 10 11 19 13 29 19 19 25 23 10 11 20 19 16 15 19 19 17 9 16 26 31 46
53 57 59 57 52 33 26 14 5 6 8 4 18 9 10 19 13 5 17 7 14 13 12 32 36 26 28 26 21 18 8 19 22 27 30 29 33 39 34 27 27 23 27 48
55 51 53 45 38 31 17 12 9 8 14 18 13 6 6 15 9 10 20 24 29 30 29 35 45 41 28 15 9 18 14 13 20 24 31 34 40 40 40 38 37 36 40 57
60 57 44 39 25 27 10 15 11 6 9 7 7 5 8 19 32 24 25 30 31 31 36 42 58 62 66 40 19 11 8 8 10 22 16 18 26 43 47 39 35 32 40 49
57 51 43 40 17 17 22 20 19 4 8 6 14 19 34 32 29 30 59 46 32 26 66 69 52 37 34 29 27 26 9 18 11 7 4 14 12 2 12 27 32 34 40 47
55 47 42 37 17 14 24 22 20 8 8 17 28 16 25 36 35 22 26 30 25 46 27 11 15 5 4 6 4 23 24 9 5 7 13 23 31 5 12 7 20 19 35 45
49 37 41 31 24 18 23 25 22 19 9 9 17 34 20 12 16 16 16 31 29 16 6 6 8 7 8 9 15 6 18 24 10 9 10 9 7 11 14 15 20 26 36 30
44 45 40 29 15 18 24 29 25 26 16 36 18 10 10 9 9 11 29 18 9 13 11 7 6 6 10 8 14 9 4 6 21 19 10 14 5 17 16 9 3 30 15 13
45 44 38 32 16 10 20 28 31 31 21 55 50 41 22 16 12 7 19 17 3 6 10 7 7 6 6 7 8 11 5 7 4 10 11 13 17 20 10 12 46 33 40 20
44 41 39 31 23 19 18 30 25 27 35 49 69 81 74 73 70 36 12 10 12 4 5 1 5 6 5 10 6 2 4 3 5 6 6 13 32 32 66 70 56 63 41 25
45 42 40 34 24 17 20 33 33 35 36 52 31 20 9 12 8 26 19 13 11 6 10 3 4 9 3 6 5 6 7 12 5 6 6 23 35 50 55 10 19 2 12 8
44 42 39 35 31 24 27 33 32 28 19 11 17 16 46 37 31 36 39 43 15 11 7 9 5 7 7 5 8 8 8 13 10 9 15 26 15 46 49 40 46 36 26 31
44 40 36 34 30 27 29 35 36 34 28 9 27 58 2 14 14 24 31 47 54 19 6 6 6 7 5 7 6 6 14 8 5 5 28 15 21 40 47 42 47 43 37 38
43 41 37 31 29 22 19 10 1 6 25 8 8 16 11 12 15 9 23 36 30 20 6 9 8 9 7 5 4 7 15 11 10 12 23 16 30 30 33 35 36 38 47 35
46 45 40 33 26 21 17 8 12 18 10 7 10 10 8 15 5 2 9 20 18 17 8 9 7 6 9 4 6 13 15 9 15 21 12 17 26 26 31 33 34 29 36 47
44 42 31 23 17 20 25 14 27 21 13 9 5 8 11 3 3 5 9 9 14 11 7 6 6 6 5 6 6 8 13 6 19 18 17 16 23 32 33 31 28 28 39 31
44 31 14 8 4 5 4 12 16 32 14 7 7 5 6 6 5 5 5 8 6 7 6 5 4 4 8 6 3 7 13 7 9 13 20 23 32 34 37 31 29 30 37 33
33 15 1 4 5 11 13 6 9 28 13 13 8 7 7 5 2 3 3 4 3 5 5 4 6 6 11 11 8 4 10 10 10 17 22 21 27 27 29 32 27 25 28 25
31 20 6 10 15 12 7 7 8 14 7 11 11 19 13 10 8 4 4 2 3 4 3 5 4 5 3 12 12 5 17 9 15 18 15 18 26 25 29 30 30 22 21 26
39 27 26 14 5 7 6 6 6 9 7 8 6 8 16 8 13 6 4 4 2 6 5 2 5 5 4 15 16 18 22 15 10 14 15 19 28 33 31 32 32 29 20 19
12 4 7 6 4 6 10 8 6 6 6 6 4 5 9 8 11 5 4 6 6 5 4 5 7 3 12 19 16 18 19 20 11 12 14 17 26 36 42 42 41 35 25 21
5 5 9 9 9 10 8 5 4 6 13 18 24 11 9 9 8 2 6 2 2 2 4 7 4 9 23 28 22 21 20 20 20 14 11 14 23 31 37 43 39 32 30 26
8 6 9 10 11 12 11 11 14 13 19 16 18 10 10 4 4 6 3 5 5 7 7 5 3 3 23 28 26 21 19 20 21 18 11 10 15 24 29 34 37 42 42 43
9 12 10 13 13 13 5 6 11 17 20 24 8 6 4 6 2 6 9 6 8 5 6 14 11 3 25 26 24 23 20 19 21 21 14 9 9 18 21 26 35 41 45 52
8 8 12 20 25 24 19 16 27 27 13 5 5 5 5 2 3 5 3 5 6 13 17 18 20 11 20 26 23 22 23 22 19 20 17 14 10 14 16 22 28 35 43 49
Wind_Direction_850mb
349 352 353 356 350 349 357 357 283 358 348 343 40 338 322 313 300 358 287 271 270 269 285 282 282 250 266 322 341 322 331 307 289 283 289 263 266 290 238 244 225 240 284 272
345 348 351 353 356 352 351 346 308 349 358 27 339 311 280 270 293 314 302 277 285 303 288 296 255 273 292 292 296 289 343 274 308 302 195 109 132 263 270 290 267 253 244 247
343 345 348 353 357 355 352 353 329 354 54 63 346 331 280 314 267 284 256 275 296 275 279 258 279 284 295 282 288 285 270 248 252 259 302 319 297 285 267 260 259 247 237 266
342 341 343 351 353 7 3 5 30 353 316 346 314 295 275 293 293 277 302 269 229 280 285 300 279 287 290 289 284 275 253 254 246 260 274 276 275 275 272 259 250 254 261 257
337 333 331 345 353 1 357 4 347 318 285 296 297 295 273 303 328 317 296 270 295 295 284 284 289 290 278 249 231 239 218 237 217 250 258 264 270 267 263 260 258 253 253 263
331 333 342 340 353 348 344 335 313 293 282 301 296 287 312 304 317 292 249 293 300 295 291 300 287 280 274 258 252 230 231 203 215 256 268 280 273 251 246 254 251 243 244 254
334 341 348 351 332 330 316 313 309 234 291 263 293 293 299 297 303 276 289 291 284 293 307 301 289 271 259 249 251 214 209 202 230 276 309 253 275 215 281 265 268 263 237 245
330 342 339 339 326 290 320 299 289 234 265 291 294 308 308 305 308 280 281 293 294 312 312 310 329 334 222 225 203 216 206 207 236 235 226 279 285 39 335 353 286 267 224 238
340 353 336 339 345 295 281 304 284 259 279 249 271 308 294 299 324 309 282 313 323 350 336 322 328 329 309 328 333 171 219 210 213 213 246 262 39 120 12 327 273 226 226 238
331 330 330 333 328 330 279 284 286 267 258 280 269 265 303 278 284 284 297 335 324 2 360 340 336 309 327 304 324 332 162 181 223 231 261 271 66 342 326 248 15 325 309 263
323 323 328 327 304 300 294 283 288 277 274 286 274 272 243 255 236 251 310 323 49 301 12 354 336 296 322 290 281 310 301 304 220 218 236 267 22 330 237 330 311 303 300 269
322 321 323 325 316 281 288 296 285 284 276 270 284 287 282 268 258 251 270 284 298 254 294 213 293 286 287 292 302 39 299 270 288 253 294 297 292 256 263 262 265 280 285 271
322 320 318 315 305 301 275 289 293 292 283 295 285 292 293 307 315 218 218 237 233 219 218 265 282 272 259 293 329 289 240 210 242 301 264 289 301 336 343 51 207 11 53 48
322 323 322 317 311 285 261 269 274 268 277 282 280 302 301 292 258 243 256 244 260 279 217 226 248 263 202 286 284 289 280 307 279 253 278 319 310 347 356 18 50 37 49 45
327 326 323 321 311 304 295 289 282 251 231 284 296 313 341 329 313 246 242 238 245 272 241 222 238 248 266 227 284 279 340 331 323 330 307 307 327 344 360 12 35 26 40 40
325 320 316 309 303 302 315 312 355 314 214 266 291 309 313 337 338 259 233 233 233 238 253 246 254 249 236 292 273 253 331 22 337 284 317 351 354 358 358 7 19 20 36 30
324 317 312 303 287 257 230 249 282 314 172 249 280 284 277 315 307 194 201 211 224 230 250 232 255 267 221 261 274 346 354 16 6 11 11 20 12 355 355 359 16 12 28 48
325 321 316 310 294 251 255 274 266 247 206 242 265 276 302 274 245 210 201 208 217 227 262 254 245 258 238 257 264 325 5 10 23 34 52 42 14 16 13 16 14 30 38 25
332 329 324 313 330 187 185 280 307 225 213 264 232 264 288 320 257 231 225 220 235 227 243 239 211 219 232 239 160 43 23 16 63 50 38 33 23 16 21 25 19 31 42 34
341 336 320 228 233 285 288 251 202 189 227 231 251 219 261 298 303 275 265 211 275 254 219 230 233 259 260 228 168 66 53 46 72 43 22 31 27 24 27 31 34 33 45 37
359 346 309 285 274 289 221 244 220 192 239 226 239 225 242 248 217 249 232 275 261 271 77 284 302 270 202 165 144 116 112 74 59 57 43 55 37 33 33 32 41 40 51 55
323 304 300 301 271 239 250 226 226 195 241 200 213 258 220 238 215 221 187 259 239 255 349 250 262 257 219 158 142 129 124 111 71 47 72 52 39 33 33 36 40 47 59 66
330 292 271 242 229 237 218 226 209 218 202 155 13 318 271 197 205 227 199 220 234 314 252 244 242 171 183 175 158 139 132 123 106 59 53 56 46 36 36 38 43 45 62 71
298 265 264 214 214 231 221 252 352 23 345 321 312 272 279 207 172 176 222 158 223 243 250 245 216 214 181 173 163 160 154 146 131 111 92 44 43 41 43 44 48 57 71 89
262 233 244 240 250 271 283 300 313 305 302 323 314 259 228 201 166 189 198 180 248 230 239 247 238 165 177 179 176 170 162 155 149 132 106 71 49 45 53 56 54 56 63 69
239 236 265 285 290 294 303 308 299 340 322 311 235 263 257 232 240 184 220 188 213 262 240 280 311 153 176 185 181 181 170 160 155 147 136 116 70 48 60 67 65 62 63 67
265 277 298 288 286 282 297 319 318 330 325 286 272 225 244 57 238 224 219 196 235 275 313 329 325 315 187 180 187 182 177 173 160 166 156 151 126 64 66 71 70 69 71 71